GEFSNE_prec_meanprecacc_186.txt.gz
Total_Precipitation_Accumulation
1.73 1.75 1.75 1.67 1.68 1.69 1.77 1.82 1.85 1.66 1.41 1.18 1.02 0.92 1.00 1.02 1.25 1.18 0.99 1.00 0.93 0.81 0.74 0.69 0.78 0.93 1.14 1.24 1.35 1.44 1.53 1.55 1.47 1.35 1.35 1.37 1.40 1.52
1.48 1.54 1.59 1.60 1.65 1.66 1.73 1.79 1.76 1.70 1.54 1.31 1.15 1.07 1.11 1.01 1.12 1.03 1.08 1.21 1.02 0.88 0.79 0.74 0.74 0.83 0.92 0.95 0.94 0.88 0.88 0.92 0.93 0.98 0.99 1.04 1.14 1.29
1.16 1.19 1.26 1.31 1.41 1.47 1.58 1.64 1.68 1.64 1.43 1.27 1.16 1.17 1.18 1.16 1.14 1.06 1.12 1.14 1.02 0.92 0.80 0.70 0.71 0.76 0.85 0.91 0.89 0.82 0.73 0.69 0.71 0.77 0.83 0.85 0.84 0.87
0.93 0.98 1.02 1.06 1.17 1.26 1.33 1.41 1.54 1.59 1.49 1.34 1.23 1.18 1.08 1.09 1.24 1.28 1.27 1.18 1.16 1.21 1.09 0.92 0.84 0.79 0.80 0.88 0.92 0.88 0.79 0.71 0.64 0.65 0.70 0.77 0.82 0.84
0.63 0.69 0.77 0.84 0.99 1.08 1.12 1.21 1.37 1.40 1.49 1.38 1.33 1.27 1.12 1.06 1.21 1.24 1.31 1.47 1.36 1.43 1.56 1.35 1.09 0.91 0.83 0.89 0.94 0.92 0.84 0.77 0.66 0.61 0.67 0.73 0.72 0.77
0.54 0.56 0.60 0.63 0.72 0.83 0.95 1.15 1.32 1.45 1.49 1.42 1.39 1.37 1.30 1.21 1.28 1.37 1.44 1.55 1.57 1.40 1.42 1.39 1.32 1.20 1.02 0.92 0.97 1.01 0.99 0.91 0.84 0.76 0.72 0.72 0.70 0.70
0.49 0.54 0.57 0.55 0.56 0.60 0.61 0.79 1.02 1.27 1.37 1.42 1.44 1.47 1.42 1.39 1.33 1.45 1.54 1.65 1.75 1.72 1.59 1.42 1.37 1.22 1.10 1.02 0.98 1.02 1.07 1.06 1.01 0.90 0.83 0.82 0.78 0.76
0.52 0.58 0.56 0.52 0.56 0.55 0.54 0.56 0.67 0.84 1.02 1.15 1.24 1.30 1.35 1.46 1.57 1.58 1.55 1.62 1.68 1.70 1.57 1.58 1.52 1.39 1.22 1.05 1.05 1.07 1.11 1.12 1.09 1.01 0.92 0.83 0.81 0.83
0.50 0.65 0.71 0.65 0.63 0.66 0.69 0.62 0.56 0.57 0.72 0.91 1.03 1.08 1.16 1.27 1.52 1.56 1.56 1.59 1.51 1.56 1.42 1.46 1.43 1.31 1.23 1.18 1.19 1.12 1.13 1.09 1.09 1.03 1.00 0.94 0.86 0.88
0.46 0.59 0.85 0.87 0.76 0.72 0.76 0.87 0.78 0.63 0.61 0.67 0.83 0.95 1.01 1.17 1.50 1.73 1.67 1.45 1.41 1.48 1.38 1.38 1.33 1.21 1.15 1.14 1.18 1.09 1.08 1.04 1.00 1.00 0.99 0.96 0.92 0.92
0.39 0.51 0.68 0.83 0.77 0.72 0.72 0.80 0.83 0.73 0.67 0.69 0.66 0.74 0.87 1.05 1.31 1.57 1.68 1.62 1.46 1.41 1.28 1.20 1.22 1.22 1.25 1.21 1.15 1.14 1.07 1.07 1.06 1.05 1.07 1.05 1.02 1.07
0.26 0.41 0.57 0.56 0.53 0.60 0.72 0.82 0.90 0.75 0.66 0.75 0.74 0.76 0.79 0.97 1.30 1.52 1.64 1.62 1.50 1.45 1.34 1.25 1.24 1.27 1.45 1.40 1.23 1.17 1.11 1.13 1.14 1.13 1.11 1.14 1.20 1.17
0.20 0.33 0.41 0.38 0.38 0.47 0.58 0.71 0.84 0.70 0.72 0.87 0.91 0.89 0.96 1.01 1.12 1.27 1.48 1.59 1.49 1.33 1.26 1.37 1.43 1.36 1.34 1.35 1.32 1.24 1.16 1.09 1.08 1.10 1.11 1.12 1.17 1.14
0.21 0.27 0.31 0.27 0.30 0.34 0.39 0.50 0.61 0.69 0.78 0.91 0.98 0.95 0.91 0.97 1.03 1.07 1.18 1.29 1.29 1.23 1.14 1.10 1.20 1.19 1.14 1.05 1.05 1.12 1.14 1.10 1.07 1.07 1.09 1.20 1.18 1.19
0.20 0.24 0.25 0.27 0.30 0.31 0.33 0.40 0.55 0.74 0.91 0.92 0.85 0.82 0.85 0.90 0.91 1.03 1.11 1.15 1.18 1.18 1.08 0.93 0.94 1.00 1.00 0.95 0.87 0.89 0.99 1.05 1.01 0.98 0.98 1.03 1.05 1.09
0.20 0.21 0.21 0.27 0.30 0.30 0.35 0.47 0.63 0.83 0.91 0.82 0.77 0.68 0.69 0.83 0.89 0.91 0.95 0.97 1.03 1.08 1.00 0.94 0.90 0.89 0.91 0.88 0.84 0.81 0.81 0.86 0.92 0.94 0.94 0.92 0.92 0.94
0.19 0.25 0.29 0.36 0.41 0.48 0.58 0.67 0.69 0.73 0.78 0.70 0.74 0.69 0.64 0.72 0.76 0.77 0.78 0.75 0.76 0.77 0.80 0.81 0.84 0.82 0.80 0.82 0.84 0.80 0.80 0.76 0.76 0.85 0.93 0.91 0.87 0.87
0.23 0.31 0.39 0.47 0.53 0.61 0.67 0.68 0.68 0.69 0.71 0.68 0.67 0.66 0.60 0.60 0.62 0.64 0.68 0.70 0.74 0.71 0.65 0.62 0.64 0.70 0.75 0.80 0.80 0.75 0.77 0.79 0.80 0.82 0.83 0.82 0.76 0.75
0.21 0.32 0.51 0.56 0.55 0.60 0.64 0.63 0.55 0.49 0.50 0.52 0.51 0.49 0.47 0.48 0.52 0.54 0.56 0.62 0.64 0.61 0.61 0.62 0.61 0.64 0.66 0.61 0.58 0.57 0.66 0.71 0.73 0.76 0.78 0.76 0.71 0.68
0.16 0.23 0.36 0.41 0.44 0.50 0.50 0.47 0.41 0.34 0.34 0.34 0.34 0.36 0.37 0.39 0.41 0.44 0.45 0.45 0.51 0.52 0.52 0.53 0.54 0.56 0.59 0.59 0.54 0.47 0.48 0.57 0.60 0.63 0.65 0.69 0.72 0.82
0.17 0.22 0.26 0.30 0.31 0.30 0.31 0.31 0.31 0.31 0.31 0.31 0.32 0.34 0.35 0.36 0.35 0.35 0.38 0.42 0.43 0.43 0.44 0.44 0.44 0.52 0.56 0.62 0.59 0.46 0.41 0.47 0.53 0.54 0.60 0.69 0.69 0.64
0.17 0.18 0.19 0.19 0.20 0.21 0.23 0.26 0.28 0.31 0.32 0.32 0.32 0.33 0.35 0.37 0.36 0.35 0.35 0.36 0.38 0.41 0.41 0.42 0.45 0.48 0.53 0.60 0.56 0.48 0.43 0.44 0.50 0.60 0.61 0.62 0.61 0.57
0.18 0.17 0.17 0.18 0.19 0.21 0.25 0.26 0.27 0.31 0.33 0.33 0.35 0.36 0.38 0.39 0.39 0.39 0.38 0.38 0.39 0.42 0.44 0.45 0.47 0.50 0.52 0.54 0.53 0.50 0.48 0.48 0.51 0.53 0.53 0.57 0.56 0.53

GEFSNE_prec_meanprecacc_192.txt.gz
Total_Precipitation_Accumulation
1.73 1.75 1.75 1.67 1.68 1.69 1.77 1.82 1.85 1.66 1.41 1.19 1.03 0.93 1.01 1.04 1.26 1.18 1.00 1.01 0.93 0.82 0.74 0.69 0.79 0.94 1.15 1.25 1.35 1.46 1.55 1.57 1.49 1.37 1.38 1.40 1.43 1.55
1.49 1.54 1.59 1.60 1.66 1.66 1.73 1.80 1.77 1.70 1.54 1.31 1.15 1.08 1.12 1.01 1.13 1.03 1.08 1.22 1.03 0.88 0.80 0.75 0.75 0.85 0.93 0.95 0.94 0.88 0.88 0.92 0.94 0.98 1.00 1.06 1.16 1.31
1.17 1.20 1.27 1.31 1.41 1.47 1.58 1.65 1.68 1.65 1.43 1.28 1.16 1.17 1.18 1.17 1.15 1.07 1.12 1.15 1.03 0.93 0.80 0.71 0.72 0.78 0.87 0.91 0.89 0.82 0.73 0.69 0.72 0.78 0.84 0.86 0.85 0.88
0.94 0.99 1.03 1.06 1.18 1.27 1.34 1.42 1.55 1.59 1.49 1.34 1.23 1.18 1.08 1.10 1.25 1.29 1.27 1.19 1.19 1.22 1.10 0.94 0.85 0.81 0.82 0.88 0.92 0.88 0.79 0.71 0.64 0.65 0.70 0.77 0.82 0.85
0.65 0.69 0.77 0.85 1.00 1.09 1.12 1.22 1.38 1.41 1.49 1.39 1.34 1.28 1.13 1.06 1.23 1.26 1.31 1.48 1.39 1.45 1.57 1.37 1.10 0.93 0.84 0.89 0.94 0.92 0.84 0.77 0.66 0.61 0.67 0.74 0.73 0.78
0.55 0.57 0.61 0.63 0.73 0.85 0.96 1.16 1.33 1.45 1.50 1.43 1.43 1.39 1.31 1.22 1.29 1.38 1.45 1.56 1.59 1.42 1.44 1.40 1.33 1.21 1.03 0.92 0.97 1.02 0.99 0.91 0.84 0.76 0.72 0.72 0.72 0.71
0.49 0.55 0.58 0.56 0.57 0.62 0.62 0.80 1.04 1.28 1.37 1.43 1.46 1.48 1.43 1.39 1.34 1.47 1.54 1.66 1.76 1.74 1.60 1.43 1.38 1.23 1.10 1.03 1.00 1.03 1.08 1.06 1.01 0.90 0.83 0.82 0.79 0.77
0.53 0.58 0.57 0.53 0.57 0.57 0.55 0.57 0.68 0.85 1.03 1.16 1.25 1.30 1.36 1.47 1.58 1.59 1.56 1.63 1.68 1.70 1.58 1.58 1.52 1.40 1.23 1.06 1.06 1.08 1.11 1.13 1.09 1.02 0.92 0.83 0.81 0.83
0.50 0.65 0.72 0.65 0.64 0.67 0.69 0.63 0.57 0.57 0.72 0.92 1.04 1.08 1.16 1.27 1.52 1.57 1.57 1.60 1.52 1.56 1.43 1.47 1.43 1.31 1.23 1.18 1.19 1.12 1.13 1.09 1.09 1.03 1.00 0.94 0.87 0.88
0.46 0.60 0.85 0.88 0.77 0.72 0.77 0.87 0.79 0.63 0.62 0.67 0.83 0.96 1.01 1.17 1.51 1.73 1.67 1.46 1.41 1.48 1.39 1.40 1.34 1.22 1.15 1.14 1.18 1.09 1.08 1.04 1.00 1.01 0.99 0.96 0.92 0.92
0.39 0.52 0.69 0.84 0.77 0.72 0.72 0.80 0.84 0.73 0.67 0.69 0.66 0.74 0.88 1.05 1.31 1.58 1.69 1.62 1.46 1.41 1.29 1.22 1.24 1.23 1.25 1.21 1.15 1.14 1.07 1.07 1.06 1.05 1.07 1.05 1.02 1.07
0.26 0.42 0.57 0.57 0.53 0.60 0.72 0.82 0.91 0.75 0.66 0.75 0.74 0.77 0.79 0.98 1.31 1.52 1.65 1.62 1.50 1.45 1.35 1.26 1.26 1.27 1.45 1.40 1.23 1.17 1.11 1.13 1.14 1.13 1.11 1.14 1.20 1.17
0.20 0.34 0.42 0.38 0.38 0.47 0.59 0.71 0.84 0.70 0.72 0.87 0.91 0.89 0.96 1.01 1.13 1.28 1.48 1.59 1.50 1.33 1.26 1.37 1.44 1.36 1.34 1.35 1.32 1.24 1.16 1.09 1.08 1.10 1.11 1.12 1.17 1.15
0.22 0.28 0.31 0.28 0.30 0.34 0.39 0.50 0.61 0.69 0.78 0.91 0.98 0.95 0.91 0.97 1.03 1.07 1.18 1.29 1.29 1.24 1.14 1.10 1.20 1.19 1.14 1.05 1.05 1.12 1.14 1.10 1.07 1.07 1.09 1.20 1.18 1.19
0.20 0.24 0.26 0.27 0.31 0.32 0.33 0.40 0.55 0.74 0.91 0.92 0.85 0.82 0.86 0.90 0.92 1.03 1.11 1.15 1.18 1.18 1.08 0.93 0.94 1.00 1.00 0.95 0.87 0.89 0.99 1.05 1.01 0.98 0.98 1.03 1.05 1.09
0.21 0.22 0.22 0.28 0.31 0.30 0.35 0.47 0.63 0.83 0.91 0.82 0.77 0.68 0.70 0.83 0.90 0.92 0.95 0.98 1.03 1.08 1.01 0.94 0.90 0.89 0.91 0.88 0.84 0.81 0.81 0.86 0.92 0.94 0.94 0.92 0.92 0.94
0.20 0.26 0.30 0.37 0.42 0.48 0.59 0.68 0.69 0.73 0.78 0.70 0.74 0.69 0.64 0.72 0.76 0.77 0.79 0.75 0.76 0.77 0.80 0.81 0.84 0.82 0.80 0.82 0.84 0.80 0.80 0.76 0.76 0.85 0.93 0.92 0.87 0.87
0.24 0.32 0.40 0.48 0.54 0.62 0.68 0.69 0.68 0.69 0.72 0.68 0.67 0.66 0.60 0.60 0.62 0.64 0.68 0.70 0.74 0.71 0.65 0.62 0.64 0.70 0.75 0.80 0.80 0.75 0.77 0.79 0.80 0.82 0.83 0.82 0.77 0.76
0.22 0.32 0.52 0.57 0.56 0.61 0.65 0.64 0.55 0.49 0.50 0.52 0.51 0.49 0.47 0.48 0.52 0.54 0.56 0.62 0.64 0.61 0.61 0.62 0.61 0.64 0.66 0.61 0.58 0.57 0.67 0.71 0.74 0.77 0.79 0.77 0.72 0.69
0.16 0.23 0.37 0.42 0.45 0.50 0.51 0.48 0.41 0.34 0.34 0.35 0.35 0.36 0.37 0.39 0.41 0.44 0.45 0.45 0.51 0.52 0.52 0.53 0.54 0.56 0.60 0.60 0.55 0.48 0.49 0.58 0.61 0.65 0.67 0.70 0.72 0.83
0.18 0.23 0.27 0.31 0.31 0.31 0.31 0.32 0.31 0.32 0.31 0.31 0.32 0.34 0.35 0.36 0.35 0.35 0.39 0.42 0.43 0.43 0.44 0.45 0.44 0.52 0.57 0.63 0.60 0.47 0.41 0.49 0.54 0.55 0.61 0.70 0.70 0.65
0.18 0.19 0.20 0.21 0.21 0.22 0.24 0.27 0.28 0.32 0.33 0.33 0.32 0.33 0.36 0.37 0.36 0.35 0.35 0.36 0.38 0.41 0.41 0.42 0.45 0.49 0.54 0.60 0.57 0.49 0.45 0.47 0.52 0.62 0.63 0.63 0.62 0.58
0.20 0.19 0.19 0.19 0.21 0.23 0.27 0.28 0.29 0.32 0.34 0.34 0.35 0.37 0.38 0.40 0.40 0.39 0.38 0.38 0.39 0.42 0.45 0.47 0.48 0.51 0.53 0.55 0.55 0.53 0.51 0.51 0.53 0.55 0.54 0.57 0.56 0.53

GEFSNE_prec_meanprecacc_198.txt.gz
Total_Precipitation_Accumulation
1.74 1.76 1.76 1.68 1.69 1.70 1.78 1.84 1.87 1.67 1.42 1.20 1.05 0.94 1.02 1.04 1.27 1.18 1.00 1.01 0.94 0.82 0.74 0.70 0.80 0.95 1.15 1.25 1.36 1.46 1.56 1.57 1.49 1.39 1.39 1.42 1.46 1.59
1.49 1.54 1.59 1.60 1.66 1.67 1.74 1.80 1.78 1.72 1.55 1.32 1.15 1.08 1.12 1.02 1.14 1.04 1.09 1.22 1.04 0.89 0.80 0.75 0.77 0.86 0.94 0.96 0.94 0.88 0.89 0.93 0.94 0.99 1.01 1.07 1.17 1.33
1.17 1.20 1.27 1.32 1.42 1.49 1.60 1.66 1.70 1.67 1.43 1.28 1.16 1.17 1.19 1.18 1.15 1.07 1.12 1.16 1.05 0.95 0.81 0.72 0.74 0.81 0.88 0.91 0.89 0.82 0.73 0.69 0.72 0.78 0.84 0.86 0.86 0.89
0.96 1.01 1.04 1.07 1.19 1.28 1.35 1.43 1.56 1.61 1.50 1.34 1.23 1.18 1.08 1.10 1.25 1.30 1.28 1.20 1.20 1.25 1.12 0.95 0.87 0.85 0.83 0.88 0.92 0.88 0.79 0.71 0.64 0.65 0.71 0.77 0.83 0.86
0.66 0.71 0.78 0.85 1.01 1.10 1.13 1.23 1.39 1.42 1.49 1.40 1.34 1.28 1.13 1.06 1.23 1.26 1.32 1.49 1.41 1.48 1.59 1.38 1.12 0.97 0.86 0.89 0.94 0.92 0.84 0.77 0.66 0.61 0.68 0.74 0.74 0.78
0.56 0.58 0.61 0.64 0.74 0.86 0.97 1.17 1.34 1.46 1.50 1.44 1.43 1.40 1.32 1.23 1.29 1.39 1.46 1.56 1.60 1.43 1.44 1.41 1.35 1.24 1.04 0.93 0.98 1.02 0.99 0.92 0.84 0.76 0.72 0.73 0.72 0.71
0.50 0.56 0.59 0.57 0.59 0.63 0.63 0.81 1.04 1.28 1.38 1.43 1.46 1.49 1.44 1.40 1.35 1.47 1.55 1.67 1.76 1.74 1.61 1.43 1.39 1.24 1.12 1.04 1.00 1.04 1.08 1.06 1.01 0.90 0.83 0.82 0.79 0.78
0.54 0.59 0.57 0.53 0.58 0.58 0.56 0.58 0.70 0.87 1.05 1.17 1.26 1.31 1.37 1.48 1.59 1.60 1.57 1.63 1.69 1.71 1.58 1.59 1.53 1.41 1.24 1.07 1.07 1.08 1.11 1.13 1.10 1.02 0.92 0.83 0.81 0.84
0.51 0.65 0.72 0.66 0.65 0.68 0.70 0.63 0.58 0.59 0.75 0.96 1.08 1.13 1.20 1.29 1.53 1.58 1.58 1.61 1.53 1.57 1.43 1.47 1.43 1.31 1.23 1.19 1.19 1.12 1.13 1.09 1.09 1.04 1.00 0.94 0.87 0.88
0.47 0.60 0.85 0.88 0.77 0.72 0.77 0.87 0.79 0.63 0.63 0.69 0.85 0.99 1.04 1.19 1.52 1.74 1.68 1.47 1.42 1.49 1.39 1.40 1.34 1.22 1.15 1.14 1.19 1.09 1.08 1.04 1.00 1.01 0.99 0.96 0.92 0.92
0.40 0.52 0.69 0.84 0.77 0.73 0.73 0.80 0.84 0.74 0.68 0.69 0.67 0.75 0.88 1.06 1.32 1.58 1.69 1.64 1.47 1.42 1.30 1.22 1.24 1.23 1.25 1.21 1.15 1.14 1.07 1.07 1.06 1.05 1.07 1.05 1.02 1.07
0.26 0.42 0.57 0.57 0.53 0.60 0.72 0.82 0.91 0.76 0.66 0.75 0.74 0.77 0.80 0.99 1.31 1.52 1.65 1.63 1.51 1.46 1.35 1.26 1.26 1.27 1.45 1.40 1.23 1.17 1.11 1.13 1.15 1.13 1.11 1.14 1.20 1.17
0.20 0.34 0.42 0.38 0.38 0.47 0.59 0.71 0.85 0.71 0.73 0.87 0.92 0.89 0.96 1.01 1.13 1.28 1.48 1.59 1.50 1.34 1.26 1.37 1.44 1.36 1.34 1.35 1.32 1.24 1.16 1.09 1.08 1.10 1.11 1.12 1.17 1.15
0.22 0.28 0.31 0.28 0.30 0.34 0.39 0.50 0.61 0.69 0.78 0.91 0.98 0.95 0.91 0.97 1.03 1.07 1.18 1.30 1.29 1.24 1.14 1.11 1.20 1.19 1.14 1.05 1.05 1.12 1.14 1.11 1.07 1.07 1.09 1.20 1.18 1.19
0.20 0.25 0.26 0.27 0.31 0.32 0.33 0.40 0.55 0.74 0.91 0.92 0.85 0.82 0.86 0.91 0.92 1.03 1.11 1.15 1.18 1.18 1.08 0.93 0.94 1.01 1.00 0.95 0.88 0.89 0.99 1.05 1.01 0.98 0.98 1.03 1.05 1.09
0.21 0.23 0.23 0.28 0.32 0.31 0.37 0.48 0.65 0.85 0.93 0.84 0.79 0.70 0.71 0.84 0.90 0.92 0.96 0.98 1.03 1.08 1.01 0.94 0.90 0.89 0.91 0.88 0.84 0.81 0.81 0.87 0.92 0.94 0.94 0.92 0.92 0.94
0.20 0.27 0.31 0.37 0.42 0.49 0.60 0.69 0.71 0.74 0.79 0.72 0.75 0.69 0.65 0.72 0.76 0.77 0.79 0.75 0.76 0.77 0.80 0.81 0.84 0.82 0.80 0.83 0.85 0.80 0.80 0.76 0.76 0.86 0.93 0.92 0.87 0.88
0.24 0.32 0.40 0.48 0.54 0.63 0.69 0.69 0.69 0.70 0.72 0.69 0.67 0.67 0.61 0.61 0.63 0.64 0.68 0.70 0.74 0.71 0.65 0.62 0.64 0.70 0.75 0.81 0.80 0.75 0.77 0.79 0.80 0.82 0.83 0.82 0.77 0.76
0.22 0.33 0.52 0.58 0.56 0.62 0.66 0.65 0.56 0.50 0.51 0.53 0.52 0.50 0.48 0.49 0.52 0.54 0.56 0.62 0.65 0.61 0.61 0.62 0.61 0.64 0.66 0.62 0.58 0.57 0.67 0.71 0.74 0.77 0.79 0.77 0.72 0.69
0.17 0.24 0.37 0.42 0.45 0.51 0.51 0.49 0.42 0.35 0.35 0.35 0.35 0.37 0.38 0.40 0.41 0.44 0.45 0.45 0.51 0.53 0.52 0.53 0.55 0.57 0.60 0.60 0.55 0.48 0.49 0.58 0.61 0.65 0.67 0.71 0.74 0.84
0.19 0.24 0.28 0.32 0.32 0.32 0.33 0.33 0.32 0.33 0.32 0.32 0.33 0.34 0.35 0.37 0.36 0.35 0.39 0.43 0.43 0.43 0.45 0.45 0.45 0.53 0.57 0.63 0.60 0.47 0.42 0.49 0.55 0.56 0.62 0.71 0.71 0.66
0.20 0.21 0.22 0.22 0.23 0.23 0.25 0.28 0.30 0.33 0.34 0.34 0.33 0.34 0.37 0.38 0.38 0.37 0.36 0.37 0.39 0.42 0.42 0.43 0.46 0.49 0.55 0.61 0.57 0.50 0.46 0.47 0.53 0.62 0.63 0.64 0.62 0.58
0.21 0.20 0.21 0.22 0.23 0.26 0.29 0.31 0.31 0.34 0.36 0.36 0.37 0.38 0.40 0.41 0.41 0.40 0.39 0.39 0.40 0.43 0.46 0.48 0.49 0.52 0.54 0.56 0.56 0.53 0.51 0.51 0.53 0.55 0.55 0.58 0.57 0.54

GEFSNE_prec_meanprecacc_204.txt.gz
Total_Precipitation_Accumulation
1.76 1.78 1.79 1.69 1.70 1.72 1.80 1.86 1.90 1.70 1.45 1.22 1.08 0.97 1.03 1.05 1.27 1.19 1.00 1.01 0.94 0.82 0.75 0.71 0.81 0.96 1.16 1.27 1.37 1.48 1.59 1.59 1.51 1.40 1.41 1.44 1.48 1.61
1.50 1.56 1.63 1.62 1.67 1.69 1.76 1.82 1.81 1.74 1.58 1.34 1.17 1.10 1.13 1.02 1.14 1.04 1.09 1.22 1.04 0.89 0.81 0.76 0.78 0.87 0.94 0.97 0.95 0.89 0.90 0.94 0.95 0.99 1.02 1.08 1.18 1.34
1.18 1.23 1.31 1.33 1.44 1.51 1.62 1.69 1.73 1.69 1.45 1.29 1.17 1.18 1.19 1.18 1.15 1.07 1.13 1.16 1.05 0.95 0.82 0.73 0.76 0.82 0.88 0.91 0.90 0.83 0.73 0.70 0.72 0.78 0.84 0.86 0.86 0.90
0.97 1.03 1.06 1.08 1.21 1.31 1.38 1.47 1.59 1.63 1.51 1.35 1.24 1.18 1.08 1.10 1.26 1.30 1.28 1.20 1.20 1.25 1.13 0.96 0.88 0.86 0.83 0.88 0.93 0.88 0.79 0.71 0.65 0.65 0.71 0.78 0.83 0.86
0.67 0.73 0.80 0.87 1.05 1.13 1.17 1.26 1.41 1.44 1.52 1.41 1.35 1.28 1.13 1.07 1.24 1.27 1.33 1.49 1.41 1.48 1.59 1.38 1.13 0.98 0.86 0.89 0.94 0.92 0.84 0.77 0.66 0.61 0.68 0.74 0.74 0.78
0.57 0.59 0.62 0.66 0.77 0.90 1.00 1.18 1.34 1.47 1.52 1.45 1.44 1.40 1.33 1.23 1.30 1.40 1.46 1.56 1.60 1.43 1.44 1.42 1.36 1.24 1.05 0.93 0.98 1.02 1.00 0.92 0.84 0.77 0.72 0.73 0.72 0.71
0.52 0.57 0.59 0.57 0.60 0.65 0.64 0.83 1.06 1.29 1.39 1.44 1.47 1.50 1.45 1.41 1.35 1.48 1.55 1.67 1.77 1.75 1.61 1.43 1.39 1.25 1.12 1.04 1.00 1.04 1.08 1.06 1.01 0.91 0.84 0.82 0.79 0.78
0.56 0.59 0.57 0.54 0.59 0.58 0.56 0.59 0.71 0.88 1.06 1.18 1.27 1.33 1.38 1.49 1.61 1.62 1.58 1.64 1.70 1.71 1.59 1.59 1.53 1.41 1.24 1.07 1.07 1.08 1.11 1.13 1.10 1.02 0.92 0.83 0.81 0.84
0.53 0.66 0.73 0.67 0.65 0.68 0.70 0.63 0.58 0.60 0.76 0.97 1.10 1.15 1.22 1.31 1.55 1.59 1.60 1.63 1.54 1.58 1.44 1.48 1.43 1.31 1.23 1.19 1.20 1.12 1.13 1.09 1.09 1.04 1.00 0.94 0.87 0.88
0.48 0.62 0.86 0.89 0.78 0.73 0.77 0.87 0.79 0.64 0.63 0.70 0.86 1.00 1.05 1.21 1.53 1.75 1.70 1.49 1.44 1.50 1.40 1.41 1.35 1.22 1.15 1.14 1.19 1.10 1.08 1.04 1.01 1.01 0.99 0.96 0.92 0.92
0.41 0.54 0.69 0.84 0.78 0.73 0.73 0.80 0.84 0.74 0.68 0.70 0.67 0.75 0.89 1.06 1.32 1.58 1.70 1.65 1.49 1.44 1.31 1.23 1.25 1.24 1.26 1.21 1.16 1.14 1.07 1.07 1.06 1.05 1.07 1.05 1.02 1.07
0.27 0.43 0.59 0.58 0.54 0.60 0.72 0.82 0.92 0.76 0.66 0.75 0.75 0.77 0.80 0.99 1.32 1.53 1.66 1.64 1.52 1.47 1.36 1.27 1.26 1.28 1.45 1.41 1.23 1.18 1.11 1.13 1.15 1.13 1.11 1.14 1.20 1.17
0.21 0.34 0.42 0.39 0.38 0.47 0.59 0.71 0.85 0.71 0.73 0.87 0.92 0.90 0.97 1.02 1.13 1.28 1.49 1.60 1.52 1.35 1.27 1.38 1.45 1.37 1.35 1.36 1.32 1.24 1.16 1.09 1.08 1.10 1.11 1.12 1.17 1.15
0.23 0.28 0.32 0.28 0.30 0.34 0.39 0.50 0.61 0.69 0.78 0.91 0.99 0.95 0.92 0.97 1.03 1.08 1.19 1.30 1.30 1.24 1.15 1.11 1.21 1.20 1.15 1.06 1.05 1.12 1.14 1.11 1.07 1.07 1.09 1.20 1.18 1.19
0.22 0.26 0.27 0.28 0.31 0.32 0.33 0.40 0.55 0.74 0.92 0.93 0.85 0.82 0.86 0.91 0.93 1.04 1.12 1.16 1.19 1.18 1.08 0.93 0.94 1.01 1.01 0.95 0.88 0.89 0.99 1.05 1.01 0.98 0.99 1.03 1.05 1.09
0.22 0.23 0.24 0.29 0.32 0.31 0.37 0.49 0.65 0.85 0.93 0.86 0.81 0.71 0.72 0.85 0.91 0.93 0.96 0.98 1.04 1.09 1.01 0.95 0.91 0.90 0.92 0.89 0.84 0.81 0.81 0.87 0.92 0.94 0.94 0.92 0.92 0.94
0.21 0.27 0.31 0.37 0.43 0.50 0.60 0.69 0.71 0.75 0.80 0.73 0.77 0.70 0.65 0.72 0.77 0.77 0.79 0.76 0.77 0.78 0.80 0.82 0.85 0.83 0.81 0.83 0.85 0.81 0.80 0.76 0.76 0.86 0.93 0.92 0.87 0.88
0.25 0.32 0.40 0.48 0.55 0.63 0.69 0.70 0.69 0.70 0.73 0.69 0.68 0.67 0.62 0.62 0.64 0.65 0.69 0.72 0.75 0.72 0.65 0.62 0.64 0.70 0.75 0.81 0.80 0.75 0.77 0.79 0.80 0.82 0.83 0.83 0.77 0.76
0.23 0.33 0.52 0.58 0.57 0.62 0.67 0.66 0.57 0.51 0.52 0.54 0.53 0.51 0.49 0.49 0.53 0.55 0.56 0.62 0.65 0.62 0.62 0.62 0.61 0.64 0.66 0.62 0.58 0.57 0.67 0.72 0.74 0.77 0.79 0.78 0.73 0.70
0.18 0.25 0.39 0.44 0.47 0.53 0.53 0.51 0.44 0.37 0.36 0.37 0.37 0.38 0.39 0.41 0.42 0.45 0.46 0.46 0.52 0.53 0.52 0.53 0.55 0.57 0.61 0.62 0.56 0.49 0.50 0.59 0.62 0.66 0.68 0.72 0.74 0.84
0.20 0.26 0.31 0.34 0.35 0.34 0.35 0.35 0.34 0.36 0.35 0.35 0.35 0.36 0.37 0.38 0.37 0.36 0.40 0.43 0.44 0.44 0.45 0.45 0.46 0.54 0.59 0.65 0.62 0.48 0.42 0.50 0.55 0.56 0.62 0.71 0.71 0.66
0.21 0.22 0.24 0.25 0.25 0.26 0.28 0.31 0.33 0.36 0.38 0.38 0.37 0.39 0.41 0.42 0.41 0.39 0.38 0.39 0.40 0.43 0.43 0.45 0.48 0.51 0.56 0.62 0.58 0.50 0.46 0.48 0.53 0.63 0.64 0.65 0.63 0.59
0.24 0.23 0.22 0.23 0.25 0.27 0.31 0.32 0.33 0.37 0.39 0.40 0.42 0.44 0.45 0.45 0.45 0.43 0.41 0.41 0.42 0.45 0.48 0.50 0.51 0.54 0.56 0.57 0.57 0.55 0.52 0.52 0.54 0.56 0.56 0.60 0.59 0.55